Location: Shenandoah County Park
(38.9356°N, 78.4524°W)
Time: 11:28:21
(UTC-05:00)

Envisat - Pass Details

Date: 03 October 2022
Orbit: 763 x 765 km, 98.2° (Epoch: 29 November)

Event Time Altitude Azimuth Distance (km) Brightness Sun altitude
Rises 05:00:37 0° 20° (NNE) 3,239 6.7 -26.0°
Reaches altitude 10° 05:03:04 10° 28° (NNE) 2,308 6.0 -25.6°
Maximum altitude 05:07:52 41° 98° (E) 1,094 4.2 -24.7°
Drops below altitude 10° 05:12:37 10° 169° (SSE) 2,292 5.4 -23.8°
Sets 05:15:02 0° 176° (S) 3,213 6.1 -23.3°
